Avalon School, Santa Catalina Island Weather observations

Data are for 10 minute period ending at time listed.
 Day   Time   Solar   Ave.   Ave.  Ave.  Vector    Max.   Stn.    Total
  of    of     Rad.   Air    Rel.  Wind   Wind     Wind   Baro.  Precip.
Year   Day            Temp.  Hum.  Speed  Dir.     Gust   Pres.         
2015   (PST)   W/m2    F      %     mph   deg.      mph    mb.     in.  
------------------------------------------------------------------------
 109   17:50   21.0    64   80.0     1    195.7     3.0    999.0   0.00  
 109   18:00   17.0    63   73.9     2    254.7     4.2    999.0   0.00  
 109   18:10   13.0    63   75.8     1    252.5     2.4    999.0   0.00  
 109   18:20    9.0    62   76.4     1    267.8     2.4    999.0   0.00  
 109   18:30    4.0    61   79.1     0    254.5     2.4    999.0   0.00  
 109   18:40    1.0    60   80.5     1    260.2     2.4    999.0   0.00  
 109   18:50    0.0    60   81.0     2    264.5     3.0    999.0   0.00  
 109   19:00    0.0    59   81.6     1    248.1     2.4    999.0   0.00  
 109   19:10    0.0    59   82.5     0    272.5     1.8    999.0   0.00  
 109   19:20    0.0    58   83.0     0      0.0     0.0    999.0   0.00  
 109   19:30    0.0    58   83.7     0    170.5     1.2    999.0   0.00  
 109   19:40    0.0    58   84.4     0    254.6     1.8    999.0   0.00  
 109   19:50    0.0    57   84.9     0    247.4     1.2    999.0   0.00  
 109   20:00    0.0    57   85.3     0      0.0     0.0    999.0   0.00  
 109   20:10    0.0    57   85.9     0    132.5     2.4    999.0   0.00  
 109   20:20    0.0    56   85.6     0    273.0     1.8    999.0   0.00  
 109   20:30    0.0    57   86.2     0     48.8     1.2    999.0   0.00  
 109   20:40    0.0    56   85.0     0      0.0     0.0    999.0   0.00  
 109   20:50    0.0    56   85.8     0    251.5     1.2    999.0   0.00  
 109   21:00    0.0    56   86.4     0    139.5     1.8    999.0   0.00  
 109   21:10    0.0    56   85.9     0    273.3     2.4    999.0   0.00  
 109   21:20    0.0    56   86.0     0    124.0     3.6    999.0   0.00  
 109   21:30    0.0    56   86.7     0      0.0     0.0    999.0   0.00  
 109   21:40    0.0    56   87.4     1    220.7     4.8    999.0   0.00  
 109   21:50    0.0    58   85.7     2    200.1     4.8    999.0   0.00  
 109   22:00    0.0    58   84.2     2    225.6     6.0    999.0   0.00  
 109   22:10    0.0    58   84.2     2    244.3     3.6    999.0   0.00  
 109   22:20    0.0    57   84.4     1    265.7     2.4    999.0   0.00  
 109   22:30    0.0    57   84.4     1    252.4     3.6    999.0   0.00  
 109   22:40    0.0    56   83.4     2    269.4     3.0    999.0   0.00  
 109   22:50    0.0    56   82.9     1    255.8     3.0    999.0   0.00  
 109   23:00    0.0    56   82.6     1    257.0     2.4    999.0   0.00  
 109   23:10    0.0    56   83.2     0    238.5     2.4    999.0   0.00  
 109   23:20    0.0    56   83.5     0    268.8     3.0    999.0   0.00  
 109   23:30    0.0    56   84.1     0    221.9     3.0    999.0   0.00  
 109   23:40    0.0    57   84.9     2    215.3     4.2    999.0   0.00  
 109   23:50    0.0    56   85.1     1    269.4     2.4    999.0   0.00  
 110    0:00    0.0    56   86.9     0    273.7     1.8    999.0   0.00  
 110    0:10    0.0    56   87.7     0    121.2     1.2    999.0   0.00  
 110    0:20    0.0    56   87.5     0    107.6     2.4    999.0   0.00  
 110    0:30    0.0    56   87.5     0    267.0     1.8    999.0   0.00  
 110    0:40    0.0    57   86.8     0     91.8     1.2    999.0   0.00  
 110    0:50    0.0    57   86.1     0     93.0     1.2    999.0   0.00  
 110    1:00    0.0    58   85.8     1    168.3     2.4    999.0   0.00  
 110    1:10    0.0    58   86.2     0    200.2     1.2    999.0   0.00  
 110    1:20    0.0    59   86.8     0    277.4     1.2    999.0   0.00  
 110    1:30    0.0    59   86.8     0    142.6     1.8    999.0   0.00  
 110    1:40    0.0    60   86.7     0      0.0     0.0    999.0   0.00  
 110    1:50    0.0    60   86.7     0    115.6     1.2    999.0   0.00  
 110    2:00    0.0    60   86.7     1    113.7     3.0    999.0   0.00  
 110    2:10    0.0    60   86.4     1    112.0     3.6    999.0   0.00  
 110    2:20    0.0    60   85.7     2    109.6     3.6    999.0   0.00  
 110    2:30    0.0    60   85.1     1    119.7     3.0    999.0   0.00  
 110    2:40    0.0    60   84.8     2    125.7     4.8    999.0   0.00  
 110    2:50    0.0    60   84.6     2    115.5     4.2    999.0   0.00  
 110    3:00    0.0    60   84.2     1    119.0     3.6    999.0   0.00  
 110    3:10    0.0    60   84.0     1     97.3     2.4    999.0   0.00  
 110    3:20    0.0    60   83.8     2    115.9     4.2    999.0   0.00  
 110    3:30    0.0    60   83.6     2    101.6     4.8    999.0   0.00  
 110    3:40    0.0    60   83.4     1     89.9     5.4    999.0   0.00  
 110    3:50    0.0    60   83.3     2     91.2     5.4    999.0   0.00  
 110    4:00    0.0    60   82.9     2    119.9     4.8    999.0   0.00  
 110    4:10    0.0    60   82.8     2    109.4     4.2    999.0   0.00  
 110    4:20    0.0    60   82.2     2    106.9     6.6    999.0   0.00  
 110    4:30    0.0    60   82.1     1    117.9     3.6    999.0   0.00  
 110    4:40    0.0    60   81.2     1     76.1     3.0    999.0   0.00  
 110    4:50    0.0    60   80.8     2    117.0     6.0    999.0   0.00  
 110    5:00    0.0    60   80.4     2    120.9     3.6    999.0   0.00  
 110    5:10    0.0    60   79.9     0    300.2     2.4    999.0   0.00  
 110    5:20    2.0    60   80.1     2     88.1     4.2    999.0   0.00  
 110    5:30    4.0    60   79.9     1    118.3     4.8    999.0   0.00  
 110    5:40    8.0    59   79.5     1    242.8     3.0    999.0   0.00  
 110    5:50   14.0    60   79.8     1    140.5     2.4    999.0   0.00  
 110    6:00   19.0    60   79.6     1    124.8     3.6    999.0   0.00  
 110    6:10   23.0    60   79.7     2    129.4     3.6    999.0   0.00  
 110    6:20   32.0    60   80.0     2     95.7     4.8    999.0   0.00  
 110    6:30   43.0    60   79.5     2    101.1     6.0    999.0   0.00  
 110    6:40   55.0    60   79.1     2    115.8     7.2    999.0   0.00  
 110    6:50   74.0    60   78.3     1    309.2     4.2    999.0   0.00  
 110    7:00   89.0    60   77.5     2    116.1     4.2    999.0   0.00  
 110    7:10  107.0    60   77.3     2     67.8     3.6    999.0   0.00  
 110    7:20  130.0    61   76.7     2    303.9     4.8    999.0   0.00  
 110    7:30  139.0    61   75.9     1    277.4     3.6    999.0   0.00  
 110    7:40  160.0    61   75.2     2    303.4     3.6    999.0   0.00  
 110    7:50  172.0    61   75.0     3     79.1     5.4    999.0   0.00  
 110    8:00  174.0    61   75.4     2    100.5     5.4    999.0   0.00  
 110    8:10  178.0    61   75.5     3    101.2     6.0    999.0   0.00  
 110    8:20  147.0    61   75.9     3    107.0     6.6    999.0   0.00  
 110    8:30  164.0    61   76.0     3    109.9     5.4    999.0   0.00  
 110    8:40  452.0    62   75.4     4    126.3     7.2    999.0   0.00  
 110    8:50  619.0    64   70.8     4    108.7     7.8    999.0   0.00  
 110    9:00  583.0    63   72.5     5    131.9     8.4    999.0   0.00  
 110    9:10  626.0    63   73.6     5    115.5     9.0    999.0   0.00  
 110    9:20  273.0    62   74.2     3     88.1     8.4    999.0   0.00  
 110    9:30  256.0    62   75.3     5    127.4     8.4    999.0   0.00  
 110    9:40  672.0    63   73.1     4    117.0     7.2    999.0   0.00  
 110    9:50  470.0    64   70.8     4    105.8     8.4    999.0   0.00  
 110   10:00  441.0    63   72.5     5    109.4    10.2    999.0   0.00  
 110   10:10  531.0    63   72.6     5    126.9     9.6    999.0   0.00  
 110   10:20  629.0    64   71.2     4    114.7     9.0    999.0   0.00  
 110   10:30  740.0    64   70.8     4     94.4     7.8    999.0   0.00  
 110   10:40  804.0    64   71.8     5    101.8     8.4    999.0   0.00  
 110   10:50  654.0    64   71.9     4    106.5     9.0    999.0   0.00  
 110   11:00  583.0    64   71.7     5    110.2     8.4    999.0   0.00  
 110   11:10  716.0    64   71.3     4     27.9     8.4    999.0   0.00  
 110   11:20  847.0    65   70.9     4    113.0     8.4    999.0   0.00  
 110   11:30  754.0    65   70.1     5    103.2    10.2    999.0   0.00  
 110   11:40  789.0    64   70.8     4     95.5    11.3    999.0   0.00  
 110   11:50  774.0    64   72.2     4     84.1    10.2    999.0   0.00  
 110   12:00  817.0    64   71.5     5    103.7     9.6    999.0   0.00  
 110   12:10  821.0    64   71.2     5     99.3     9.6    999.0   0.00  
 110   12:20  810.0    64   72.4     5    116.5     7.8    999.0   0.00  
 110   12:30  798.0    63   73.4     6    103.1    10.2    999.0   0.00  
 110   12:40  792.0    64   72.4     5     99.5     9.0    999.0   0.00  
 110   12:50  778.0    64   71.1     5    115.1     8.4    999.0   0.00  
 110   13:00  768.0    64   71.5     5    103.1     9.0    999.0   0.00  
 110   13:10  762.0    64   71.6     5    119.0     9.0    999.0   0.00  
 110   13:20  753.0    64   72.6     5    103.9     9.0    999.0   0.00  
 110   13:30  740.0    64   71.7     6     98.7    11.3    999.0   0.00  
 110   13:40  728.0    64   68.8    11     78.4    15.5    999.0   0.00  
 110   13:50  713.0    65   68.0     8     81.0    16.7    999.0   0.00  
 110   14:00  694.0    65   67.4     7     85.5    14.9    999.0   0.00  
 110   14:10  676.0    66   65.8     4     96.6    10.2    999.0   0.00  
 110   14:20  657.0    66   65.0     4    110.7     9.0    999.0   0.00  
 110   14:30  635.0    66   66.4     5    182.0    11.3    999.0   0.00  
 110   14:40  613.0    65   67.6     6    152.0    12.5    999.0   0.00  
 110   14:50  590.0    65   67.5     5    160.5    14.3    999.0   0.00  
 110   15:00  566.0    65   67.4     6    238.2    12.5    999.0   0.00  
 110   15:10  541.0    65   67.6     5    252.8    10.2    999.0   0.00  
 110   15:20  515.0    65   67.5     5    115.0     9.6    999.0   0.00  
 110   15:30  488.0    65   68.1     5     55.5    10.8    999.0   0.00  
 110   15:40  459.0    64   68.5     6     11.0    13.1    999.0   0.00  
 110   15:50  432.0    64   70.0     6     95.0    10.8    999.0   0.00  
 110   16:00  403.0    64   69.0     4     19.0     9.6    999.0   0.00  
 110   16:10  374.0    64   69.8     5    173.9     9.6    999.0   0.00  
 110   16:20  344.0    64   69.7     5    177.6     9.0    999.0   0.00  
 110   16:30  313.0    65   67.4     4    187.0     8.4    999.0   0.00  
 110   16:40  280.0    65   69.1     3    143.5     8.4    999.0   0.00  
 110   16:50  250.0    65   68.7     4    207.2     6.6    999.0   0.00  
 110   17:00  218.0    65   68.7     3     19.4     7.2    999.0   0.00  
 110   17:10  150.0    64   70.0     3     94.6     5.4    999.0   0.00  
 110   17:20   38.0    62   75.5     3    137.9     6.6    999.0   0.00  
 110   17:30   33.0    62   76.4     3    134.9     4.8    999.0   0.00  
 110   17:40   29.0    62   76.9     2    124.8     4.2    999.0   0.00  

Return to Avalon School graphs page.


Western Regional Climate Center,wrcc@dri.edu